Location: Crescent
(42.8242°N, 73.7329°W)
Time: 20:24:05
(UTC+00:00)

SR - Pass Details

Date: 20 February 2026
Orbit: 573 x 848 km, 66.7° (Epoch: 6 March)

Event Time Altitude Azimuth Distance (km) Brightness Sun altitude
Rises 09:18:53 0° 226° (SW) 2,770 - -27.4°
Reaches altitude 10° 09:21:08 10° 232° (SW) 1,886 - -27.0°
Maximum altitude 09:25:11 45° 306° (NW) 813 - -26.2°
Exits shadow 09:27:07 27° 3° (N) 1,163 ? -25.9°
Drops below altitude 10° 09:29:27 10° 20° (NNE) 1,986 ? -25.5°
Sets 09:31:53 0° 27° (NNE) 2,936 ? -25.0°
